Radiation Dose at Monitoring Post of Fukushima Daini Nuclear Power Station
Date,Time,MP-1(microSv/h),MP-2(microSv/h),MP-3(microSv/h),MP-4(microSv/h),MP-5(microSv/h),MP-6(microSv/h),MP-7(microSv/h),Wind Direction,Wind Velocity(m/s),Rain
2023/11/13,00:00,0.163,0.150,0.227,0.214,0.221,0.135,0.094,northwest,10.0,Yes
2023/11/13,00:10,0.162,0.148,0.224,0.214,0.218,0.133,0.093,northwest,10.3,Yes
2023/11/13,00:20,0.160,0.146,0.224,0.212,0.218,0.133,0.092,northwest,9.6,Yes
2023/11/13,00:30,0.160,0.148,0.224,0.213,0.218,0.132,0.092,northwest,9.8,Yes
2023/11/13,00:40,0.164,0.150,0.227,0.216,0.220,0.136,0.095,northwest,10.3,Yes
2023/11/13,00:50,0.165,0.151,0.226,0.216,0.221,0.138,0.097,northwest,9.5,Yes
2023/11/13,01:00,0.165,0.152,0.229,0.215,0.221,0.137,0.097,northwest,9.6,Yes
2023/11/13,01:10,0.166,0.151,0.227,0.214,0.220,0.136,0.097,northwest,10.3,Yes
2023/11/13,01:20,0.164,0.151,0.227,0.215,0.221,0.136,0.096,northwest,10.1,Yes
2023/11/13,01:30,0.164,0.150,0.227,0.216,0.221,0.137,0.096,northwest,9.8,Yes
2023/11/13,01:40,0.164,0.150,0.225,0.214,0.220,0.135,0.094,north-northwest,8.4,Yes
2023/11/13,01:50,0.162,0.148,0.224,0.212,0.221,0.133,0.093,northwest,7.3,Yes
2023/11/13,02:00,0.158,0.145,0.221,0.210,0.218,0.131,0.091,northwest,7.6,Yes
2023/11/13,02:10,0.157,0.143,0.219,0.209,0.216,0.130,0.088,north-northwest,5.8,Yes
2023/11/13,02:20,0.155,0.141,0.217,0.207,0.214,0.127,0.087,north-northwest,5.9,No
2023/11/13,02:30,0.154,0.139,0.215,0.206,0.212,0.126,0.084,northwest,5.6,No
2023/11/13,02:40,0.152,0.137,0.215,0.203,0.211,0.124,0.084,northwest,5.3,No
2023/11/13,02:50,0.150,0.135,0.213,0.202,0.210,0.122,0.081,northwest,6.2,No
2023/11/13,03:00,0.149,0.136,0.212,0.201,0.209,0.121,0.080,north-northwest,6.6,No
2023/11/13,03:10,0.148,0.134,0.210,0.199,0.208,0.120,0.080,north-northwest,6.9,No
2023/11/13,03:20,0.148,0.133,0.211,0.201,0.209,0.120,0.079,north-northwest,7.8,No
2023/11/13,03:30,0.147,0.133,0.211,0.199,0.208,0.120,0.078,northwest,7.7,No
2023/11/13,03:40,0.146,0.133,0.209,0.199,0.207,0.119,0.077,northwest,6.7,No
2023/11/13,03:50,0.145,0.132,0.210,0.199,0.207,0.119,0.077,northwest,7.9,No
2023/11/13,04:00,0.146,0.133,0.210,0.198,0.207,0.119,0.077,northwest,8.7,No
2023/11/13,04:10,0.145,0.131,0.210,0.198,0.206,0.118,0.076,northwest,9.2,No
2023/11/13,04:20,0.145,0.132,0.211,0.199,0.207,0.117,0.076,northwest,9.2,No
2023/11/13,04:30,0.145,0.131,0.210,0.199,0.206,0.118,0.076,northwest,9.2,No
2023/11/13,04:40,0.145,0.130,0.209,0.198,0.206,0.117,0.075,northwest,9.0,No
2023/11/13,04:50,0.145,0.132,0.209,0.198,0.206,0.118,0.076,northwest,9.2,No
2023/11/13,05:00,0.144,0.131,0.208,0.198,0.207,0.117,0.076,northwest,8.6,No
2023/11/13,05:10,0.144,0.130,0.209,0.198,0.206,0.117,0.076,northwest,8.2,No
2023/11/13,05:20,0.144,0.131,0.210,0.198,0.205,0.117,0.076,northwest,8.4,No
2023/11/13,05:30,0.144,0.130,0.209,0.198,0.205,0.117,0.075,northwest,8.2,No
2023/11/13,05:40,0.145,0.131,0.209,0.198,0.206,0.116,0.076,northwest,7.0,No
2023/11/13,05:50,0.145,0.131,0.209,0.198,0.205,0.117,0.075,northwest,6.5,No
2023/11/13,06:00,0.145,0.131,0.210,0.198,0.205,0.118,0.076,northwest,6.2,No
2023/11/13,06:10,0.145,0.132,0.209,0.198,0.205,0.118,0.075,northwest,5.7,No
2023/11/13,06:20,0.144,0.131,0.209,0.198,0.205,0.117,0.075,northwest,5.4,No
2023/11/13,06:30,0.145,0.131,0.208,0.198,0.205,0.118,0.075,northwest,3.6,No
2023/11/13,06:40,0.144,0.131,0.209,0.198,0.205,0.117,0.075,northwest,3.0,No
2023/11/13,06:50,0.144,0.132,0.209,0.197,0.205,0.117,0.075,northwest,3.0,No
2023/11/13,07:00,0.143,0.131,0.209,0.199,0.205,0.117,0.075,northwest,4.3,No
2023/11/13,07:10,0.145,0.131,0.209,0.198,0.204,0.117,0.075,northwest,4.0,No
2023/11/13,07:20,0.144,0.130,0.209,0.198,0.204,0.118,0.075,northwest,3.9,No
2023/11/13,07:30,0.145,0.131,0.210,0.197,0.206,0.118,0.075,northwest,3.3,No
2023/11/13,07:40,0.144,0.130,0.209,0.198,0.205,0.118,0.076,northwest,3.9,No
2023/11/13,07:50,0.145,0.131,0.210,0.198,0.205,0.118,0.075,northwest,5.6,No
2023/11/13,08:00,0.143,0.131,0.208,0.199,0.205,0.118,0.075,northwest,7.0,No
2023/11/13,08:10,0.145,0.131,0.209,0.197,0.206,0.116,0.075,northwest,6.5,No
2023/11/13,08:20,0.145,0.131,0.210,0.198,0.205,0.117,0.075,west-northwest,6.0,No
2023/11/13,08:30,0.146,0.131,0.209,0.197,0.205,0.117,0.075,west-northwest,5.5,No
2023/11/13,08:40,0.144,0.131,0.209,0.198,0.205,0.117,0.075,west-northwest,5.4,No
2023/11/13,08:50,0.145,0.131,0.209,0.197,0.205,0.118,0.075,west-northwest,4.4,No
2023/11/13,09:00,0.145,0.131,0.210,0.198,0.206,0.117,0.076,west-northwest,3.1,No
2023/11/13,09:10,0.145,0.131,0.210,0.198,0.205,0.118,0.076,northwest,3.4,No
2023/11/13,09:20,0.144,0.131,0.210,0.198,0.205,0.116,0.076,west-northwest,3.8,No
2023/11/13,09:30,0.146,0.132,0.210,0.198,0.208,0.117,0.075,west-northwest,2.8,No
2023/11/13,09:40,0.145,0.131,0.209,0.197,0.205,0.118,0.076,west-northwest,2.4,No
2023/11/13,09:50,0.144,0.131,0.210,0.198,0.207,0.118,0.076,west-northwest,2.5,No
2023/11/13,10:00,0.144,0.132,0.209,0.198,0.206,0.118,0.076,west-northwest,3.5,No
2023/11/13,10:10,0.144,0.132,0.209,0.198,0.205,0.119,0.076,west-northwest,3.0,No
2023/11/13,10:20,0.145,0.132,0.209,0.198,0.208,0.117,0.075,west-northwest,1.5,No
2023/11/13,10:30,0.144,0.131,0.210,0.199,0.205,0.117,0.076,northwest,1.6,No
2023/11/13,10:40,0.144,0.131,0.209,0.197,0.207,0.118,0.075,west-northwest,1.8,No
2023/11/13,10:50,0.144,0.132,0.209,0.198,0.206,0.118,0.076,west-northwest,3.5,No
2023/11/13,11:00,0.143,0.132,0.210,0.199,0.206,0.118,0.076,west-northwest,3.4,No
2023/11/13,11:10,0.145,0.131,0.209,0.197,0.206,0.118,0.076,west-northwest,4.2,No
2023/11/13,11:20,0.144,0.131,0.209,0.199,0.205,0.118,0.076,northwest,5.4,No
2023/11/13,11:30,0.145,0.131,0.209,0.199,0.207,0.118,0.075,north-northwest,3.0,No
2023/11/13,11:40,0.146,0.131,0.209,0.198,0.205,0.118,0.075,north-northwest,2.0,No
2023/11/13,11:50,0.145,0.131,0.210,0.199,0.207,0.117,0.076,northwest,1.5,No
2023/11/13,12:00,0.145,0.131,0.210,0.198,0.205,0.117,0.075,west-northwest,5.5,No
2023/11/13,12:10,0.143,0.130,0.209,0.198,0.206,0.118,0.075,west-northwest,5.2,No
2023/11/13,12:20,0.144,0.130,0.210,0.198,0.207,0.118,0.076,northwest,6.2,No
2023/11/13,12:30,0.145,0.131,0.209,0.198,0.205,0.119,0.075,northwest,6.4,No
2023/11/13,12:40,0.144,0.132,0.210,0.200,0.207,0.118,0.075,northwest,6.7,No
2023/11/13,12:50,0.146,0.131,0.210,0.198,0.205,0.118,0.075,northwest,6.0,No
2023/11/13,13:00,0.144,0.131,0.210,0.198,0.207,0.119,0.076,west-northwest,5.8,No
2023/11/13,13:10,0.144,0.132,0.210,0.197,0.207,0.118,0.075,northwest,7.7,No
2023/11/13,13:20,0.145,0.131,0.211,0.198,0.206,0.119,0.075,north-northeast,2.3,No
2023/11/13,13:30,0.144,0.131,0.209,0.198,0.205,0.119,0.076,northeast,4.5,No
2023/11/13,13:40,0.145,0.131,0.211,0.199,0.205,0.118,0.075,north-northeast,3.4,No
2023/11/13,13:50,0.144,0.131,0.209,0.198,0.205,0.117,0.075,north-northeast,3.0,No
2023/11/13,14:00,0.145,0.130,0.210,0.198,0.205,0.118,0.076,northwest,2.4,No
2023/11/13,14:10,0.145,0.131,0.210,0.199,0.206,0.119,0.076,north-northeast,1.2,No
2023/11/13,14:20,0.144,0.131,0.211,0.199,0.206,0.118,0.076,west-northwest,2.8,No
2023/11/13,14:30,0.145,0.131,0.210,0.199,0.207,0.118,0.075,west,2.1,No
2023/11/13,14:40,0.145,0.131,0.211,0.200,0.205,0.117,0.076,northwest,3.5,No
2023/11/13,14:50,0.146,0.131,0.210,0.197,0.206,0.118,0.075,north,1.4,No
2023/11/13,15:00,0.146,0.132,0.211,0.199,0.206,0.119,0.076,north-northeast,2.6,No
2023/11/13,15:10,0.145,0.132,0.210,0.199,0.205,0.119,0.075,north-northwest,4.0,No
2023/11/13,15:20,0.145,0.131,0.210,0.200,0.208,0.119,0.075,northwest,4.2,No
2023/11/13,15:30,0.145,0.131,0.210,0.200,0.206,0.118,0.075,west-northwest,7.1,No
2023/11/13,15:40,0.145,0.131,0.211,0.198,0.207,0.118,0.075,west-northwest,5.5,No
2023/11/13,15:50,0.145,0.132,0.211,0.200,0.206,0.118,0.075,northwest,6.6,No
2023/11/13,16:00,0.144,0.132,0.210,0.200,0.206,0.118,0.075,northwest,5.7,No
2023/11/13,16:10,0.145,0.132,0.210,0.199,0.207,0.118,0.075,west-northwest,6.4,No
2023/11/13,16:20,0.145,0.131,0.210,0.200,0.206,0.119,0.075,west-northwest,4.8,No
2023/11/13,16:30,0.144,0.132,0.211,0.199,0.206,0.118,0.074,west-northwest,5.5,No
2023/11/13,16:40,0.145,0.132,0.210,0.199,0.206,0.118,0.076,northwest,6.2,No
2023/11/13,16:50,0.145,0.132,0.210,0.199,0.206,0.118,0.076,northwest,3.5,No
2023/11/13,17:00,0.145,0.132,0.211,0.200,0.206,0.118,0.076,northwest,3.1,No
2023/11/13,17:10,0.146,0.133,0.210,0.199,0.206,0.118,0.076,northwest,2.8,No
2023/11/13,17:20,0.145,0.131,0.210,0.200,0.207,0.119,0.076,northwest,3.5,No
2023/11/13,17:30,0.144,0.132,0.210,0.200,0.206,0.118,0.076,west-northwest,3.8,No
2023/11/13,17:40,0.145,0.132,0.211,0.199,0.207,0.119,0.075,west-northwest,4.7,No
2023/11/13,17:50,0.146,0.131,0.211,0.199,0.206,0.119,0.075,west-northwest,4.6,No
2023/11/13,18:00,0.146,0.132,0.211,0.200,0.205,0.119,0.075,west-northwest,4.0,No
2023/11/13,18:10,0.145,0.132,0.210,0.199,0.207,0.118,0.076,northwest,4.0,No
2023/11/13,18:20,0.145,0.132,0.211,0.201,0.207,0.119,0.075,north-northwest,2.5,No
2023/11/13,18:30,0.146,0.132,0.210,0.200,0.207,0.118,0.076,west,2.2,No
2023/11/13,18:40,0.146,0.131,0.212,0.199,0.206,0.118,0.075,west-northwest,2.1,No
2023/11/13,18:50,0.145,0.132,0.211,0.200,0.207,0.118,0.076,northwest,1.3,No
2023/11/13,19:00,0.146,0.132,0.210,0.199,0.206,0.118,0.076,west-northwest,0.6,No
2023/11/13,19:10,0.146,0.131,0.211,0.199,0.206,0.119,0.075,west-northwest,1.3,No
2023/11/13,19:20,0.145,0.132,0.211,0.200,0.205,0.118,0.076,northwest,3.3,No
2023/11/13,19:30,0.145,0.132,0.210,0.199,0.206,0.118,0.076,northwest,4.4,No
2023/11/13,19:40,0.146,0.132,0.211,0.200,0.207,0.119,0.075,northwest,3.5,No
2023/11/13,19:50,0.145,0.131,0.211,0.200,0.205,0.119,0.076,northwest,4.2,No
2023/11/13,20:00,0.146,0.132,0.211,0.200,0.207,0.118,0.076,west-northwest,5.0,No
2023/11/13,20:10,0.146,0.132,0.210,0.200,0.206,0.119,0.076,west-northwest,5.0,No
2023/11/13,20:20,0.146,0.132,0.211,0.199,0.207,0.119,0.075,west-northwest,3.7,No
2023/11/13,20:30,0.145,0.131,0.211,0.200,0.205,0.119,0.076,west,3.1,No
2023/11/13,20:40,0.146,0.132,0.211,0.200,0.206,0.118,0.075,west-southwest,2.6,No
2023/11/13,20:50,0.145,0.132,0.211,0.200,0.205,0.119,0.076,west,3.8,No
2023/11/13,21:00,0.145,0.131,0.211,0.200,0.206,0.119,0.076,west,3.1,No
2023/11/13,21:10,0.144,0.131,0.211,0.199,0.206,0.119,0.076,west,3.0,No
2023/11/13,21:20,0.146,0.132,0.210,0.199,0.206,0.118,0.076,west-southwest,1.8,No
2023/11/13,21:30,0.145,0.132,0.210,0.199,0.205,0.118,0.075,west,1.5,No
2023/11/13,21:40,0.145,0.131,0.212,0.199,0.205,0.119,0.075,northwest,2.2,No
2023/11/13,21:50,0.145,0.131,0.211,0.200,0.206,0.119,0.076,west-northwest,3.6,No
2023/11/13,22:00,0.145,0.132,0.211,0.199,0.206,0.119,0.075,west-northwest,3.8,No
2023/11/13,22:10,0.146,0.131,0.211,0.200,0.207,0.119,0.076,west-northwest,2.2,No
2023/11/13,22:20,0.146,0.131,0.211,0.199,0.205,0.118,0.075,west-southwest,2.1,No
2023/11/13,22:30,0.145,0.132,0.212,0.200,0.206,0.118,0.076,west,3.2,No
2023/11/13,22:40,0.146,0.131,0.211,0.200,0.207,0.119,0.076,west-northwest,1.7,No
2023/11/13,22:50,0.145,0.132,0.211,0.200,0.206,0.119,0.076,northwest,2.6,No
2023/11/13,23:00,0.145,0.131,0.210,0.200,0.205,0.118,0.076,west-northwest,1.1,No
2023/11/13,23:10,0.146,0.132,0.211,0.200,0.207,0.119,0.075,northwest,2.9,No
2023/11/13,23:20,0.146,0.132,0.211,0.200,0.207,0.119,0.075,north,1.2,No
2023/11/13,23:30,0.145,0.133,0.212,0.199,0.206,0.118,0.075,northwest,2.9,No
2023/11/13,23:40,0.145,0.132,0.212,0.200,0.206,0.119,0.075,northwest,3.7,No
2023/11/13,23:50,0.145,0.132,0.211,0.199,0.207,0.119,0.076,west-northwest,5.1,No
